Regional Weather Roundup
Issued by NWS

Home | Current Version | Previous Version | Graphics & Text | Print | Product List | Glossary Off
Versions: 1 2 3 4 5 6 7 8 9 10 11 12 13 14 15 16 17 18 19 20 21 22 23 24 25 26 27 28 29 30 31 32 33 34 35 36 37 38 39 40 41 42 43 44 45 46 47 48 49 50

000
ASUS43 KTOP 030608
RWRKS

WEATHER ROUNDUP FOR KANSAS
NATIONAL WEATHER SERVICE GOODLAND KS
100 AM CDT FRI JUL 03 2015

NOTE:  "FAIR" INDICATES FEW OR NO CLOUDS BELOW 12,000 FEET WITH NO
SIGNIFICANT WEATHER AND/OR OBSTRUCTIONS TO VISIBILITY.

KSZ001>006-013>018-027>032-041>047-030700-
NORTHWEST KANSAS

CITY           SKY/WX    TMP DP  RH WIND       PRES   REMARKS
GOODLAND       PTCLDY    65  56  72 E5        30.10S
6HR MIN TEMP:  64; 6HR MAX TEMP:  84;

HAYS           CLEAR     70  57  64 N7        29.99S
HILL CITY      CLEAR     67  60  78 N6        30.02R
6HR MIN TEMP:  66; 6HR MAX TEMP:  90; 6HR PCP: TRACE;

RUSSELL        CLEAR     68  63  84 NE7       29.96S
6HR MIN TEMP:  68; 6HR MAX TEMP:  85;

$$

KSZ061>065-074>080-084>089-030700-
SOUTHWEST KANSAS

CITY           SKY/WX    TMP DP  RH WIND       PRES   REMARKS
DODGE CITY     CLEAR     68  63  84 S5        30.03R
6HR MIN TEMP:  67; 6HR MAX TEMP:  82;

ELKHART          N/A     66  59  78 S7          N/A
GARDEN CITY    CLEAR     67  65  93 W6        30.03R
6HR MIN TEMP:  67; 6HR MAX TEMP:  82;

GREAT BEND     PTCLDY    72  66  83 W7        29.98S
LIBERAL        PTCLDY    68  63  83 CALM      30.06R
PRATT          PTCLDY    68  64  88 W5        29.99R
$$

KSZ066>073-081>083-090>101-030700-
SOUTHEAST KANSAS

CITY           SKY/WX    TMP DP  RH WIND       PRES   REMARKS
CHANUTE        MOCLDY    70  69  97 S6        29.91F FOG
6HR MIN TEMP:  70; 6HR MAX TEMP:  79;

COFFEYVILLE    CLEAR     69  67  93 CALM      29.91R
6HR MIN TEMP:  69; 6HR MAX TEMP:  81;

HUTCHINSON     CLEAR     69  66  90 S5        29.95S
6HR MIN TEMP:  67; 6HR MAX TEMP:  81;

MEDICINE LODGE   N/A     67  65  93 CALM      29.96S
NEWTON         CLEAR     70  64  83 SW8       29.96S
PARSONS        CLEAR     72  71  97 MISG      29.93F
6HR MIN TEMP:  70; 6HR MAX TEMP:  80;

WICHITA INTL   PTCLDY    69  66  90 SW3       29.93F
6HR MIN TEMP:  69; 6HR MAX TEMP:  80;

WICHITA JABRA  CLEAR     69  66  90 SW8       29.93F
6HR MIN TEMP:  66; 6HR MAX TEMP:  77;

WICHITA MCCONL CLEAR     70  66  88 S5        29.93F
WINFIELD       CLEAR     72  70  93 S3        29.94S
6HR MIN TEMP:  69; 6HR MAX TEMP:  81;

$$

KSZ007>012-019>026-033>040-048>060-102>105-030700-
NORTHEAST KANSAS

CITY           SKY/WX    TMP DP  RH WIND       PRES   REMARKS
CONCORDIA      CLEAR     64  63  96 W6        29.94F
6HR MIN TEMP:  64; 6HR MAX TEMP:  81;

EMPORIA        PTCLDY    69  67  93 S6        29.91F
6HR MIN TEMP:  69; 6HR MAX TEMP:  81;

LAWRENCE       CLOUDY    69  66  90 E6        29.94R FOG
6HR MIN TEMP:  68; 6HR MAX TEMP:  73;

MANHATTAN      CLOUDY    71  70  96 E5        29.92F
6HR MIN TEMP:  69; 6HR MAX TEMP:  72; 6HR PCP: TRACE;

MARYSVILLE     CLOUDY    68  66  94 E7        29.94F
OLATHE IND     CLOUDY    69  67  93 E5        29.95R FOG
6HR MIN TEMP:  69; 6HR MAX TEMP:  73; 6HR PCP:  0.03;

OLATHE EXE     CLOUDY    68  67  96 E3        29.94S FOG
6HR MIN TEMP:  67; 6HR MAX TEMP:  71; 6HR PCP:  0.17;

SALINA         CLEAR     70  64  81 W6        29.93F
6HR MIN TEMP:  69; 6HR MAX TEMP:  84;

TOPEKA BILLARD LGT RAIN  70  67  90 E9        29.93S FOG
6HR MIN TEMP:  70; 6HR MAX TEMP:  74; 6HR PCP: TRACE;

TOPEKA FORBES  HVY RAIN  70  67  90 E9        29.93S FOG
6HR MIN TEMP:  70; 6HR MAX TEMP:  76; 6HR PCP:  0.62;

$$



USA.gov is the U.S. government's official web portal to all federal, state and local government web resources and services.